Time,TemperatureF,DewpointF,PressureIn,WindDirection,WindDirectionDegrees,WindSpeedMPH,WindSpeedGustMPH,Humidity,HourlyPrecipIn,Conditions,Clouds,dailyrainin,SoftwareType,DateUTC
2014-10-01 00:03:00,80.7,84.6,29.85,SSW,202,0.1,1.8,83,0.00,,,0.00,,2014-10-01 04:03:00,
2014-10-01 00:08:00,80.7,84.4,29.85,South,180,0.0,0.0,83,0.00,,,0.00,,2014-10-01 04:08:00,
2014-10-01 00:13:00,80.7,84.4,29.85,South,180,0.0,0.0,84,0.00,,,0.00,,2014-10-01 04:13:00,
2014-10-01 00:18:00,80.7,84.4,29.85,South,180,0.0,0.0,84,0.00,,,0.00,,2014-10-01 04:18:00,
2014-10-01 00:23:00,80.8,84.4,29.85,South,180,0.0,0.0,84,0.00,,,0.00,,2014-10-01 04:23:00,
2014-10-01 00:28:00,80.8,84.5,29.85,South,180,0.0,0.0,84,0.00,,,0.00,,2014-10-01 04:28:00,
2014-10-01 00:33:00,80.8,84.5,29.85,South,180,0.0,0.0,84,0.00,,,0.00,,2014-10-01 04:33:00,
2014-10-01 00:38:00,80.8,84.6,29.85,South,180,0.0,0.0,84,0.00,,,0.00,,2014-10-01 04:38:00,
2014-10-01 00:43:00,80.9,84.5,29.85,South,180,0.0,0.0,84,0.00,,,0.00,,2014-10-01 04:43:00,
2014-10-01 00:48:00,80.9,84.4,29.85,South,180,0.0,0.0,84,0.00,,,0.00,,2014-10-01 04:48:00,
2014-10-01 00:51:00,80.8,84.5,29.85,South,180,0.0,0.0,84,0.00,,,0.00,,2014-10-01 04:51:00,
2014-10-01 00:56:00,80.8,84.5,29.85,South,180,0.0,0.0,84,0.00,,,0.00,,2014-10-01 04:56:00,
2014-10-01 01:01:00,80.8,84.5,29.85,SSW,202,0.0,0.4,84,0.00,,,0.00,,2014-10-01 05:01:00,
2014-10-01 01:06:00,80.7,84.4,29.85,SSW,202,0.0,0.4,84,0.00,,,0.00,,2014-10-01 05:06:00,
2014-10-01 01:11:00,80.7,84.5,29.85,SSW,202,0.0,0.0,84,0.00,,,0.00,,2014-10-01 05:11:00,
2014-10-01 01:16:00,80.7,84.5,29.85,SSW,202,0.0,0.0,84,0.00,,,0.00,,2014-10-01 05:16:00,
2014-10-01 01:21:00,80.7,84.6,29.85,South,180,0.0,0.0,84,0.00,,,0.00,,2014-10-01 05:21:00,
2014-10-01 01:26:00,80.7,84.4,29.85,SSW,202,0.0,0.0,84,0.00,,,0.00,,2014-10-01 05:26:00,
2014-10-01 01:31:00,80.6,84.5,29.84,SSW,202,0.0,0.0,84,0.00,,,0.00,,2014-10-01 05:31:00,
2014-10-01 01:36:00,80.6,84.6,29.84,SSW,202,0.0,0.0,84,0.00,,,0.00,,2014-10-01 05:36:00,
2014-10-01 01:41:00,80.6,84.7,29.84,SSW,202,0.0,0.0,84,0.00,,,0.00,,2014-10-01 05:41:00,
2014-10-01 01:46:00,80.6,84.6,29.84,SSW,202,0.7,2.7,84,0.00,,,0.00,,2014-10-01 05:46:00,
2014-10-01 01:50:00,80.6,84.6,29.84,SSW,202,0.3,1.3,84,0.00,,,0.00,,2014-10-01 05:50:00,
2014-10-01 01:55:00,80.6,84.1,29.84,SSW,202,0.0,0.0,84,0.00,,,0.00,,2014-10-01 05:55:00,
2014-10-01 02:00:00,80.5,84.3,29.84,SSW,202,0.0,2.0,84,0.00,,,0.00,,2014-10-01 06:00:00,
2014-10-01 02:05:00,80.5,84.1,29.84,SSW,202,1.8,3.1,84,0.00,,,0.00,,2014-10-01 06:05:00,
2014-10-01 02:10:00,80.5,84.5,29.84,SSW,202,0.4,3.6,84,0.00,,,0.00,,2014-10-01 06:10:00,
2014-10-01 02:15:00,80.5,84.2,29.85,SSW,202,0.3,2.2,84,0.00,,,0.00,,2014-10-01 06:15:00,
2014-10-01 02:20:00,80.5,84.2,29.85,SW,225,0.0,0.0,84,0.00,,,0.00,,2014-10-01 06:20:00,
2014-10-01 02:25:00,80.5,84.5,29.85,SSW,202,0.0,0.0,84,0.00,,,0.00,,2014-10-01 06:25:00,
2014-10-01 02:30:00,80.6,84.3,29.84,SSW,202,0.4,2.9,84,0.00,,,0.00,,2014-10-01 06:30:00,
2014-10-01 02:35:00,80.6,84.2,29.84,SSW,202,0.0,0.0,84,0.00,,,0.00,,2014-10-01 06:35:00,
2014-10-01 02:40:00,80.6,84.3,29.85,SSW,202,0.0,0.0,84,0.00,,,0.00,,2014-10-01 06:40:00,
2014-10-01 02:42:00,80.6,84.3,29.85,SSW,202,0.0,0.0,84,0.00,,,0.00,,2014-10-01 06:42:00,
2014-10-01 02:47:00,80.6,84.3,29.85,South,180,0.0,0.0,84,0.00,,,0.00,,2014-10-01 06:47:00,
2014-10-01 02:52:00,80.6,84.3,29.84,South,180,0.0,0.0,84,0.00,,,0.00,,2014-10-01 06:52:00,
2014-10-01 02:57:00,80.6,84.3,29.84,South,180,0.0,0.0,84,0.00,,,0.00,,2014-10-01 06:57:00,
2014-10-01 03:02:00,80.6,84.4,29.84,South,180,0.0,0.0,84,0.00,,,0.00,,2014-10-01 07:02:00,
2014-10-01 03:07:00,80.6,84.5,29.84,South,180,0.0,0.0,84,0.00,,,0.00,,2014-10-01 07:07:00,
2014-10-01 03:12:00,80.6,84.5,29.84,South,180,0.0,0.0,84,0.00,,,0.00,,2014-10-01 07:12:00,
2014-10-01 03:17:00,80.6,84.6,29.84,South,180,0.0,0.0,85,0.00,,,0.00,,2014-10-01 07:17:00,
2014-10-01 03:22:00,80.6,84.7,29.84,South,180,0.0,0.0,85,0.00,,,0.00,,2014-10-01 07:22:00,
2014-10-01 03:27:00,80.6,84.7,29.84,South,180,0.0,0.0,85,0.00,,,0.00,,2014-10-01 07:27:00,
2014-10-01 03:32:00,80.6,84.5,29.84,South,180,0.0,0.0,85,0.00,,,0.00,,2014-10-01 07:32:00,
2014-10-01 03:37:00,80.6,84.4,29.84,SSW,202,0.0,0.0,85,0.00,,,0.00,,2014-10-01 07:37:00,
2014-10-01 03:42:00,80.7,84.5,29.83,SSW,202,0.0,0.0,85,0.00,,,0.00,,2014-10-01 07:42:00,
2014-10-01 03:46:00,80.6,84.3,29.83,SSW,202,0.0,0.0,85,0.00,,,0.00,,2014-10-01 07:46:00,
2014-10-01 03:51:00,80.6,84.4,29.84,SSW,202,0.0,0.0,85,0.00,,,0.00,,2014-10-01 07:51:00,
2014-10-01 03:56:00,80.6,84.5,29.84,SSW,202,0.0,0.0,85,0.00,,,0.00,,2014-10-01 07:56:00,
2014-10-01 04:01:00,80.6,84.4,29.84,SSW,202,0.0,0.0,85,0.00,,,0.00,,2014-10-01 08:01:00,
2014-10-01 04:06:00,80.5,84.5,29.84,SSW,202,1.2,2.7,85,0.00,,,0.00,,2014-10-01 08:06:00,
2014-10-01 04:11:00,80.5,84.3,29.84,South,180,0.5,1.6,85,0.00,,,0.00,,2014-10-01 08:11:00,
2014-10-01 04:16:00,80.4,84.5,29.83,SSW,202,0.0,0.0,85,0.00,,,0.00,,2014-10-01 08:16:00,
2014-10-01 04:21:00,80.4,84.3,29.83,SSW,202,0.0,0.0,85,0.00,,,0.00,,2014-10-01 08:21:00,
2014-10-01 04:26:00,80.4,84.4,29.83,SSW,202,0.0,0.0,85,0.00,,,0.00,,2014-10-01 08:26:00,
2014-10-01 04:31:00,80.3,84.4,29.83,SSW,202,0.0,0.0,85,0.00,,,0.00,,2014-10-01 08:31:00,
2014-10-01 04:36:00,80.3,84.3,29.83,SW,225,0.0,0.0,85,0.00,,,0.00,,2014-10-01 08:36:00,
2014-10-01 04:41:00,80.4,84.5,29.83,SW,225,0.0,0.0,85,0.00,,,0.00,,2014-10-01 08:41:00,
2014-10-01 04:46:00,80.4,84.4,29.83,SW,225,0.0,0.0,86,0.00,,,0.00,,2014-10-01 08:46:00,
2014-10-01 04:51:00,80.4,84.6,29.83,SW,225,0.0,0.0,85,0.00,,,0.00,,2014-10-01 08:51:00,
2014-10-01 04:55:00,80.4,84.4,29.84,SW,225,0.0,0.0,85,0.00,,,0.00,,2014-10-01 08:55:00,
2014-10-01 05:00:00,80.3,84.5,29.83,SW,225,0.0,0.0,86,0.00,,,0.00,,2014-10-01 09:00:00,
2014-10-01 05:05:00,80.4,84.5,29.84,SW,225,0.0,0.0,86,0.00,,,0.00,,2014-10-01 09:05:00,
2014-10-01 05:10:00,80.5,84.4,29.84,SW,225,0.0,0.0,86,0.00,,,0.00,,2014-10-01 09:10:00,
2014-10-01 05:15:00,80.4,84.6,29.84,SW,225,0.0,0.0,86,0.00,,,0.00,,2014-10-01 09:15:00,
2014-10-01 05:20:00,80.4,84.3,29.84,SW,225,0.0,0.0,86,0.00,,,0.00,,2014-10-01 09:20:00,
2014-10-01 05:25:00,80.5,84.5,29.84,SW,225,0.0,0.0,86,0.00,,,0.00,,2014-10-01 09:25:00,
2014-10-01 05:30:00,80.5,84.4,29.85,SW,225,0.0,0.0,86,0.00,,,0.00,,2014-10-01 09:30:00,
2014-10-01 05:35:00,80.5,84.6,29.85,SSW,202,0.0,0.0,86,0.00,,,0.00,,2014-10-01 09:35:00,
2014-10-01 05:40:00,80.6,84.5,29.85,SSW,202,0.0,0.0,86,0.00,,,0.00,,2014-10-01 09:40:00,
2014-10-01 05:45:00,80.6,84.4,29.85,South,180,0.0,0.0,86,0.00,,,0.00,,2014-10-01 09:45:00,
2014-10-01 05:50:00,80.6,84.5,29.85,South,180,0.0,0.0,86,0.00,,,0.00,,2014-10-01 09:50:00,
2014-10-01 05:55:00,80.6,84.3,29.85,South,180,0.0,0.0,86,0.00,,,0.00,,2014-10-01 09:55:00,
2014-10-01 06:00:00,80.6,84.6,29.85,South,180,0.0,0.0,86,0.00,,,0.00,,2014-10-01 10:00:00,
2014-10-01 06:05:00,80.6,84.6,29.86,South,180,0.0,0.0,86,0.00,,,0.00,,2014-10-01 10:05:00,
2014-10-01 06:10:00,80.6,84.2,29.86,South,180,0.0,0.0,86,0.00,,,0.00,,2014-10-01 10:10:00,
2014-10-01 06:15:00,80.6,84.4,29.86,South,180,0.0,0.0,86,0.00,,,0.00,,2014-10-01 10:15:00,
2014-10-01 06:20:00,80.6,84.2,29.86,South,180,0.0,0.0,86,0.00,,,0.00,,2014-10-01 10:20:00,
2014-10-01 06:25:00,80.7,84.2,29.86,South,180,0.0,0.0,86,0.00,,,0.00,,2014-10-01 10:25:00,
2014-10-01 06:30:00,80.6,84.2,29.86,South,180,0.0,0.0,87,0.00,,,0.00,,2014-10-01 10:30:00,
2014-10-01 06:35:00,80.6,84.1,29.87,South,180,0.0,0.0,87,0.00,,,0.00,,2014-10-01 10:35:00,
2014-10-01 06:40:00,80.6,84.4,29.87,South,180,0.0,0.0,87,0.00,,,0.00,,2014-10-01 10:40:00,
2014-10-01 06:44:00,80.7,84.5,29.87,South,180,0.0,0.0,87,0.00,,,0.00,,2014-10-01 10:44:00,
2014-10-01 06:49:00,80.7,84.4,29.87,South,180,0.0,0.0,87,0.00,,,0.00,,2014-10-01 10:49:00,
2014-10-01 06:54:00,80.7,84.5,29.87,South,180,0.0,0.0,87,0.00,,,0.00,,2014-10-01 10:54:00,
2014-10-01 06:59:00,80.7,84.5,29.87,South,180,0.0,0.0,87,0.00,,,0.00,,2014-10-01 10:59:00,
2014-10-01 07:04:00,80.7,84.3,29.87,South,180,0.0,0.0,87,0.00,,,0.00,,2014-10-01 11:04:00,
2014-10-01 07:09:00,80.7,84.5,29.87,South,180,0.0,0.0,87,0.00,,,0.00,,2014-10-01 11:09:00,
2014-10-01 07:14:00,80.8,84.4,29.87,South,180,0.0,0.0,87,0.00,,,0.00,,2014-10-01 11:14:00,
2014-10-01 07:19:00,80.9,84.4,29.87,SW,225,0.0,0.0,87,0.00,,,0.00,,2014-10-01 11:19:00,
2014-10-01 07:24:00,80.8,84.5,29.88,SSW,202,0.1,2.0,87,0.00,,,0.00,,2014-10-01 11:24:00,
2014-10-01 07:29:00,81.0,84.6,29.88,SSW,202,0.0,0.0,87,0.00,,,0.00,,2014-10-01 11:29:00,
2014-10-01 07:34:00,81.2,84.4,29.88,SSW,202,0.0,0.0,87,0.00,,,0.00,,2014-10-01 11:34:00,
2014-10-01 07:40:00,81.7,84.6,29.88,SSW,202,0.0,0.0,88,0.00,,,0.00,,2014-10-01 11:40:00,
2014-10-01 07:45:00,82.2,84.5,29.88,SSW,202,1.0,2.7,89,0.00,,,0.00,,2014-10-01 11:45:00,
2014-10-01 07:50:00,82.8,84.6,29.89,SSW,202,1.2,2.2,88,0.00,,,0.00,,2014-10-01 11:50:00,
2014-10-01 07:55:00,83.3,84.6,29.89,SSW,202,1.6,2.7,88,0.00,,,0.00,,2014-10-01 11:55:00,
2014-10-01 08:00:00,83.8,84.6,29.89,SSW,202,2.9,3.8,87,0.00,,,0.00,,2014-10-01 12:00:00,
2014-10-01 08:05:00,84.4,84.7,29.89,SSW,202,3.8,4.7,87,0.00,,,0.00,,2014-10-01 12:05:00,
2014-10-01 08:10:00,85.0,84.5,29.89,SSW,202,1.5,2.9,86,0.00,,,0.00,,2014-10-01 12:10:00,
2014-10-01 08:15:00,85.5,84.8,29.89,SSW,202,1.1,1.6,86,0.00,,,0.00,,2014-10-01 12:15:00,
2014-10-01 08:20:00,86.0,84.7,29.89,South,180,1.7,3.1,85,0.00,,,0.00,,2014-10-01 12:20:00,
2014-10-01 08:25:00,86.3,84.9,29.90,SSW,202,2.1,3.6,84,0.00,,,0.00,,2014-10-01 12:25:00,
2014-10-01 08:30:00,86.4,85.0,29.90,SW,225,2.4,3.6,83,0.00,,,0.00,,2014-10-01 12:30:00,
2014-10-01 08:35:00,86.4,84.8,29.90,WSW,247,5.3,6.0,81,0.00,,,0.00,,2014-10-01 12:35:00,
2014-10-01 08:40:00,86.4,85.0,29.90,SW,225,4.8,8.5,80,0.00,,,0.00,,2014-10-01 12:40:00,
2014-10-01 08:45:00,86.2,84.8,29.91,WSW,247,2.6,3.4,79,0.00,,,0.00,,2014-10-01 12:45:00,
2014-10-01 08:50:00,86.3,84.8,29.91,SW,225,1.0,1.8,80,0.00,,,0.00,,2014-10-01 12:50:00,
2014-10-01 08:55:00,86.6,84.6,29.91,WSW,247,3.9,4.5,80,0.00,,,0.00,,2014-10-01 12:55:00,
2014-10-01 09:00:00,86.6,84.6,29.91,SW,225,1.6,3.6,79,0.00,,,0.00,,2014-10-01 13:00:00,
2014-10-01 09:05:00,86.7,84.9,29.91,SW,225,2.7,3.1,79,0.00,,,0.00,,2014-10-01 13:05:00,
2014-10-01 09:10:00,86.9,84.7,29.91,WSW,247,2.3,4.5,79,0.00,,,0.00,,2014-10-01 13:10:00,
2014-10-01 09:15:00,87.1,84.9,29.91,SSW,202,3.4,4.0,78,0.00,,,0.00,,2014-10-01 13:15:00,
2014-10-01 09:20:00,87.3,84.7,29.91,SW,225,2.9,5.6,77,0.00,,,0.00,,2014-10-01 13:20:00,
2014-10-01 09:25:00,87.1,84.9,29.91,SW,225,5.1,5.1,76,0.00,,,0.00,,2014-10-01 13:25:00,
2014-10-01 09:30:00,87.1,84.7,29.91,WSW,247,4.1,7.6,76,0.00,,,0.00,,2014-10-01 13:30:00,
2014-10-01 09:35:00,86.9,84.9,29.91,WSW,247,5.4,11.2,76,0.00,,,0.00,,2014-10-01 13:35:00,
2014-10-01 09:40:00,87.0,84.8,29.92,WSW,247,9.7,12.1,75,0.00,,,0.00,,2014-10-01 13:40:00,
2014-10-01 09:44:00,87.3,84.9,29.92,SSW,202,7.5,10.7,75,0.00,,,0.00,,2014-10-01 13:44:00,
2014-10-01 09:49:00,87.5,85.0,29.92,WSW,247,8.0,10.3,74,0.00,,,0.00,,2014-10-01 13:49:00,
2014-10-01 09:54:00,87.7,85.1,29.92,West,270,5.9,8.3,74,0.00,,,0.00,,2014-10-01 13:54:00,
2014-10-01 09:59:00,87.8,84.9,29.92,WSW,247,8.0,9.8,73,0.00,,,0.00,,2014-10-01 13:59:00,
2014-10-01 10:04:00,87.7,84.9,29.92,West,270,4.6,8.1,73,0.00,,,0.00,,2014-10-01 14:04:00,
2014-10-01 10:09:00,87.9,85.0,29.92,West,270,4.8,11.4,72,0.00,,,0.00,,2014-10-01 14:09:00,
2014-10-01 10:11:00,87.8,84.9,29.92,West,270,4.3,4.3,72,0.00,,,0.00,,2014-10-01 14:11:00,
2014-10-01 10:16:00,87.7,84.4,29.92,WSW,247,4.9,8.1,72,0.00,,,0.00,,2014-10-01 14:16:00,
2014-10-01 10:21:00,87.6,84.6,29.92,West,270,5.9,9.2,71,0.00,,,0.00,,2014-10-01 14:21:00,
2014-10-01 10:26:00,87.6,84.7,29.92,West,270,8.0,9.4,71,0.00,,,0.00,,2014-10-01 14:26:00,
2014-10-01 10:31:00,88.0,85.1,29.93,West,270,4.9,9.2,71,0.00,,,0.00,,2014-10-01 14:31:00,
2014-10-01 10:36:00,88.4,85.0,29.93,West,270,5.2,7.8,69,0.00,,,0.00,,2014-10-01 14:36:00,
2014-10-01 10:41:00,88.6,84.9,29.92,WSW,247,6.0,12.5,69,0.00,,,0.00,,2014-10-01 14:41:00,
2014-10-01 10:46:00,88.9,84.9,29.92,WSW,247,7.3,10.5,68,0.00,,,0.00,,2014-10-01 14:46:00,
2014-10-01 10:51:00,88.9,84.9,29.93,West,270,3.0,6.9,68,0.00,,,0.00,,2014-10-01 14:51:00,
2014-10-01 10:56:00,89.3,85.1,29.93,West,270,6.4,10.1,67,0.00,,,0.00,,2014-10-01 14:56:00,
2014-10-01 11:01:00,89.5,84.9,29.93,West,270,2.9,7.2,67,0.00,,,0.00,,2014-10-01 15:01:00,
2014-10-01 11:06:00,89.8,85.3,29.93,West,270,7.0,8.3,66,0.00,,,0.00,,2014-10-01 15:06:00,
2014-10-01 11:11:00,90.0,85.3,29.93,West,270,6.4,11.4,64,0.00,,,0.00,,2014-10-01 15:11:00,
2014-10-01 11:16:00,90.0,85.1,29.93,West,270,4.8,7.6,65,0.00,,,0.00,,2014-10-01 15:16:00,
2014-10-01 11:21:00,90.1,85.3,29.92,WSW,247,4.3,8.1,65,0.00,,,0.00,,2014-10-01 15:21:00,
2014-10-01 11:26:00,90.2,85.6,29.92,SW,225,10.6,13.0,64,0.00,,,0.00,,2014-10-01 15:26:00,
2014-10-01 11:31:00,90.4,85.7,29.92,West,270,6.6,13.0,64,0.00,,,0.00,,2014-10-01 15:31:00,
2014-10-01 11:36:00,90.5,85.3,29.92,WSW,247,7.3,7.6,63,0.00,,,0.00,,2014-10-01 15:36:00,
2014-10-01 11:40:00,90.1,84.9,29.92,SSW,202,7.4,9.6,63,0.00,,,0.00,,2014-10-01 15:40:00,
2014-10-01 11:45:00,89.9,85.5,29.92,West,270,4.8,11.6,64,0.00,,,0.00,,2014-10-01 15:45:00,
2014-10-01 11:50:00,90.3,85.7,29.92,SW,225,9.3,12.3,64,0.00,,,0.00,,2014-10-01 15:50:00,
2014-10-01 11:55:00,90.6,85.6,29.91,SW,225,10.0,13.2,64,0.00,,,0.00,,2014-10-01 15:55:00,
2014-10-01 12:00:00,90.7,85.7,29.91,SW,225,9.3,9.8,63,0.00,,,0.00,,2014-10-01 16:00:00,
2014-10-01 12:05:00,90.8,85.6,29.91,West,270,6.0,8.7,62,0.00,,,0.00,,2014-10-01 16:05:00,
2014-10-01 12:10:00,91.2,85.8,29.91,WNW,292,5.3,6.0,62,0.00,,,0.00,,2014-10-01 16:10:00,
2014-10-01 12:15:00,91.6,85.8,29.91,WNW,292,4.2,9.6,61,0.00,,,0.00,,2014-10-01 16:15:00,
2014-10-01 12:20:00,91.8,85.7,29.91,WSW,247,12.5,15.2,60,0.00,,,0.00,,2014-10-01 16:20:00,
2014-10-01 12:25:00,91.7,85.4,29.91,WSW,247,3.8,6.9,61,0.00,,,0.00,,2014-10-01 16:25:00,
2014-10-01 12:30:00,91.9,85.4,29.91,West,270,7.5,7.5,59,0.00,,,0.00,,2014-10-01 16:30:00,
2014-10-01 12:35:00,91.5,85.4,29.91,NW,315,8.5,13.4,59,0.00,,,0.00,,2014-10-01 16:35:00,
2014-10-01 12:40:00,91.8,85.5,29.91,NW,315,7.0,11.4,59,0.00,,,0.00,,2014-10-01 16:40:00,
2014-10-01 12:45:00,92.1,85.7,29.91,WSW,247,6.7,10.3,58,0.00,,,0.00,,2014-10-01 16:45:00,
2014-10-01 12:50:00,92.4,85.7,29.91,West,270,8.2,11.0,57,0.00,,,0.00,,2014-10-01 16:50:00,
2014-10-01 12:55:00,92.7,86.0,29.91,West,270,7.2,13.4,58,0.00,,,0.00,,2014-10-01 16:55:00,
2014-10-01 13:00:00,92.4,85.7,29.90,West,270,9.1,11.6,59,0.00,,,0.00,,2014-10-01 17:00:00,
2014-10-01 13:05:00,92.1,85.5,29.90,WNW,292,7.3,9.2,59,0.00,,,0.00,,2014-10-01 17:05:00,
2014-10-01 13:10:00,92.1,85.6,29.90,WNW,292,4.5,8.5,60,0.00,,,0.00,,2014-10-01 17:10:00,
2014-10-01 13:15:00,92.1,85.3,29.90,WNW,292,6.0,7.4,60,0.00,,,0.00,,2014-10-01 17:15:00,
2014-10-01 13:20:00,91.2,85.4,29.91,West,270,19.2,40.5,60,0.00,,,0.00,,2014-10-01 17:20:00,
2014-10-01 13:25:00,88.4,85.3,29.91,West,270,18.0,24.2,67,0.00,,,0.00,,2014-10-01 17:25:00,
2014-10-01 13:30:00,86.0,85.3,29.92,West,270,13.8,17.7,67,0.00,,,0.00,,2014-10-01 17:30:00,
2014-10-01 13:35:00,84.3,85.3,29.93,West,270,9.0,11.9,67,0.00,,,0.00,,2014-10-01 17:35:00,
2014-10-01 13:39:00,83.4,85.0,29.92,West,270,6.1,9.2,68,0.00,,,0.00,,2014-10-01 17:39:00,
2014-10-01 13:44:00,82.6,85.1,29.91,WSW,247,4.1,8.1,70,0.00,,,0.00,,2014-10-01 17:44:00,
2014-10-01 13:49:00,82.4,85.3,29.91,SSW,202,5.6,8.1,70,0.00,,,0.00,,2014-10-01 17:49:00,
2014-10-01 13:54:00,82.4,85.1,29.91,WSW,247,3.4,4.5,71,0.00,,,0.00,,2014-10-01 17:54:00,
2014-10-01 13:59:00,82.4,85.0,29.90,NNE,22,5.1,6.0,72,0.00,,,0.00,,2014-10-01 17:59:00,
2014-10-01 14:04:00,82.2,85.1,29.90,NNE,22,6.1,6.5,73,0.00,,,0.00,,2014-10-01 18:04:00,
2014-10-01 14:09:00,82.1,85.3,29.89,North,0,4.2,6.0,74,0.00,,,0.00,,2014-10-01 18:09:00,
2014-10-01 14:14:00,82.0,85.2,29.89,NNW,337,2.4,2.7,74,0.00,,,0.00,,2014-10-01 18:14:00,
2014-10-01 14:19:00,82.3,85.2,29.88,WNW,292,0.0,0.0,75,0.00,,,0.00,,2014-10-01 18:19:00,
2014-10-01 14:24:00,82.8,85.1,29.88,WNW,292,0.0,0.0,75,0.00,,,0.00,,2014-10-01 18:24:00,
2014-10-01 14:29:00,83.2,85.2,29.88,WNW,292,3.1,5.4,75,0.00,,,0.00,,2014-10-01 18:29:00,
2014-10-01 14:33:00,83.5,85.4,29.88,NNW,337,0.0,0.0,75,0.00,,,0.00,,2014-10-01 18:33:00,
2014-10-01 14:38:00,83.9,85.5,29.88,NNW,337,0.0,0.0,75,0.00,,,0.00,,2014-10-01 18:38:00,
2014-10-01 14:43:00,84.4,85.7,29.88,West,270,0.6,0.0,75,0.00,,,0.00,,2014-10-01 18:43:00,
2014-10-01 14:48:00,84.9,85.8,29.88,SSW,202,0.3,1.6,74,0.00,,,0.00,,2014-10-01 18:48:00,
2014-10-01 14:53:00,85.3,85.7,29.88,SSE,157,3.0,4.0,74,0.00,,,0.00,,2014-10-01 18:53:00,
2014-10-01 14:58:00,85.5,85.7,29.88,SSE,157,2.9,3.4,73,0.00,,,0.00,,2014-10-01 18:58:00,
2014-10-01 15:03:00,85.9,85.7,29.88,SSW,202,0.0,1.3,73,0.00,,,0.00,,2014-10-01 19:03:00,
2014-10-01 15:08:00,86.4,85.8,29.88,SSW,202,0.8,3.6,73,0.00,,,0.00,,2014-10-01 19:08:00,
2014-10-01 15:13:00,87.0,85.8,29.88,SSW,202,0.0,0.0,73,0.00,,,0.00,,2014-10-01 19:13:00,
2014-10-01 15:18:00,87.5,85.8,29.87,WSW,247,0.0,0.0,73,0.00,,,0.00,,2014-10-01 19:18:00,
2014-10-01 15:23:00,88.4,85.9,29.87,SE,135,0.0,0.0,72,0.00,,,0.00,,2014-10-01 19:23:00,
2014-10-01 15:28:00,89.1,85.8,29.87,South,180,3.2,4.3,71,0.00,,,0.00,,2014-10-01 19:28:00,
2014-10-01 15:33:00,89.8,85.9,29.87,South,180,2.5,4.0,70,0.00,,,0.00,,2014-10-01 19:33:00,
2014-10-01 15:37:00,90.2,85.9,29.87,SSW,202,0.0,0.0,70,0.00,,,0.00,,2014-10-01 19:37:00,
2014-10-01 15:42:00,91.0,85.8,29.87,WSW,247,0.0,3.6,69,0.00,,,0.00,,2014-10-01 19:42:00,
2014-10-01 15:47:00,91.7,85.9,29.87,WNW,292,0.0,0.0,69,0.00,,,0.00,,2014-10-01 19:47:00,
2014-10-01 15:52:00,92.1,85.8,29.87,SW,225,4.5,6.9,66,0.00,,,0.00,,2014-10-01 19:52:00,
2014-10-01 15:57:00,92.4,85.8,29.86,West,270,6.2,7.8,61,0.00,,,0.00,,2014-10-01 19:57:00,
2014-10-01 16:02:00,92.3,85.6,29.86,SW,225,10.5,13.4,60,0.00,,,0.00,,2014-10-01 20:02:00,
2014-10-01 16:07:00,92.2,85.6,29.86,West,270,7.2,8.7,59,0.00,,,0.00,,2014-10-01 20:07:00,
2014-10-01 16:12:00,92.2,85.4,29.86,West,270,5.5,11.2,59,0.00,,,0.00,,2014-10-01 20:12:00,
2014-10-01 16:17:00,92.0,85.4,29.86,West,270,4.5,5.1,60,0.00,,,0.00,,2014-10-01 20:17:00,
2014-10-01 16:19:00,92.1,85.5,29.86,WSW,247,6.0,7.8,60,0.00,,,0.00,,2014-10-01 20:19:00,
2014-10-01 16:24:00,92.1,85.5,29.86,SW,225,4.7,8.3,60,0.00,,,0.00,,2014-10-01 20:24:00,
2014-10-01 16:29:00,92.3,85.5,29.85,SW,225,6.7,7.4,60,0.00,,,0.00,,2014-10-01 20:29:00,
2014-10-01 16:34:00,92.4,85.6,29.85,SW,225,6.5,9.4,61,0.00,,,0.00,,2014-10-01 20:34:00,
2014-10-01 16:39:00,92.6,85.6,29.86,WSW,247,5.2,7.6,60,0.00,,,0.00,,2014-10-01 20:39:00,
2014-10-01 16:44:00,92.8,85.6,29.86,West,270,7.3,9.4,59,0.00,,,0.00,,2014-10-01 20:44:00,
2014-10-01 16:49:00,92.7,85.6,29.86,West,270,3.8,3.8,59,0.00,,,0.00,,2014-10-01 20:49:00,
2014-10-01 16:54:00,92.9,85.6,29.86,NW,315,2.7,6.5,59,0.00,,,0.00,,2014-10-01 20:54:00,
2014-10-01 16:59:00,92.7,85.3,29.86,West,270,6.3,6.3,59,0.00,,,0.00,,2014-10-01 20:59:00,
2014-10-01 17:04:00,92.7,85.4,29.86,West,270,3.1,5.8,59,0.00,,,0.00,,2014-10-01 21:04:00,
2014-10-01 17:09:00,92.8,85.4,29.85,North,0,13.2,16.6,58,0.00,,,0.00,,2014-10-01 21:09:00,
2014-10-01 17:13:00,91.4,85.6,29.85,North,0,7.7,8.5,59,0.00,,,0.00,,2014-10-01 21:13:00,
2014-10-01 17:18:00,90.0,85.5,29.85,North,0,10.4,13.2,63,0.00,,,0.00,,2014-10-01 21:18:00,
2014-10-01 17:23:00,89.1,85.5,29.86,WNW,292,6.2,7.4,64,0.00,,,0.00,,2014-10-01 21:23:00,
2014-10-01 17:28:00,88.8,85.4,29.86,NW,315,6.4,7.8,64,0.00,,,0.00,,2014-10-01 21:28:00,
2014-10-01 17:33:00,88.5,85.5,29.87,North,0,8.6,8.9,66,0.00,,,0.00,,2014-10-01 21:33:00,
2014-10-01 17:36:00,88.2,85.6,29.87,NNW,337,10.5,11.6,66,0.00,,,0.00,,2014-10-01 21:36:00,
2014-10-01 17:56:00,83.7,85.8,29.88,WSW,247,7.2,7.2,70,0.00,,,0.00,,2014-10-01 21:56:00,
2014-10-01 18:01:00,83.2,85.5,29.87,SW,225,9.9,14.3,72,0.00,,,0.00,,2014-10-01 22:01:00,
2014-10-01 18:06:00,83.0,85.2,29.87,SSW,202,11.3,14.3,73,0.00,,,0.00,,2014-10-01 22:06:00,
2014-10-01 18:11:00,83.1,85.2,29.87,SSW,202,6.8,10.1,73,0.00,,,0.00,,2014-10-01 22:11:00,
2014-10-01 18:16:00,83.8,85.2,29.87,SSW,202,8.8,11.0,73,0.00,,,0.00,,2014-10-01 22:16:00,
2014-10-01 18:21:00,84.9,85.1,29.87,SSW,202,6.8,10.1,73,0.00,,,0.00,,2014-10-01 22:21:00,
2014-10-01 18:26:00,85.8,85.2,29.87,SSW,202,6.9,8.9,71,0.00,,,0.00,,2014-10-01 22:26:00,
2014-10-01 18:31:00,85.8,85.4,29.87,SSW,202,5.0,7.2,70,0.00,,,0.00,,2014-10-01 22:31:00,
2014-10-01 18:36:00,85.0,85.4,29.88,SSW,202,2.7,6.0,70,0.00,,,0.00,,2014-10-01 22:36:00,
2014-10-01 18:41:00,84.7,85.3,29.87,South,180,2.2,2.9,71,0.00,,,0.00,,2014-10-01 22:41:00,
2014-10-01 18:46:00,84.7,85.4,29.87,SSW,202,1.2,3.1,71,0.00,,,0.00,,2014-10-01 22:46:00,
2014-10-01 18:51:00,84.7,85.3,29.87,SSE,157,3.1,4.0,71,0.00,,,0.00,,2014-10-01 22:51:00,
2014-10-01 18:56:00,84.6,85.4,29.87,South,180,2.2,3.1,72,0.00,,,0.00,,2014-10-01 22:56:00,
2014-10-01 19:01:00,84.5,85.3,29.87,South,180,0.0,0.0,72,0.00,,,0.00,,2014-10-01 23:01:00,
2014-10-01 19:06:00,84.2,85.4,29.88,South,180,3.4,4.3,72,0.00,,,0.00,,2014-10-01 23:06:00,
2014-10-01 19:11:00,83.9,85.4,29.88,SSE,157,2.6,2.9,73,0.00,,,0.00,,2014-10-01 23:11:00,
2014-10-01 19:16:00,83.8,85.3,29.88,SSE,157,0.0,0.0,73,0.00,,,0.00,,2014-10-01 23:16:00,
2014-10-01 19:21:00,83.7,85.2,29.88,South,180,0.0,0.0,73,0.00,,,0.00,,2014-10-01 23:21:00,
2014-10-01 19:26:00,83.6,85.3,29.88,South,180,0.0,0.0,73,0.00,,,0.00,,2014-10-01 23:26:00,
2014-10-01 19:31:00,83.6,85.5,29.88,South,180,0.1,0.0,74,0.00,,,0.00,,2014-10-01 23:31:00,
2014-10-01 19:34:00,83.5,85.4,29.88,SSW,202,1.7,2.0,74,0.00,,,0.00,,2014-10-01 23:34:00,
2014-10-01 19:35:00,83.6,85.5,29.88,SSW,202,2.6,3.4,74,0.00,,,0.00,,2014-10-01 23:35:00,
2014-10-01 19:40:00,83.5,85.5,29.88,SSW,202,1.0,1.8,75,0.00,,,0.00,,2014-10-01 23:40:00,
2014-10-01 19:45:00,83.4,85.4,29.88,SSW,202,2.3,3.8,75,0.00,,,0.00,,2014-10-01 23:45:00,
2014-10-01 19:50:00,83.3,85.4,29.89,SSW,202,5.0,6.5,75,0.00,,,0.00,,2014-10-01 23:50:00,
2014-10-01 19:55:00,83.3,85.4,29.89,SSW,202,3.9,5.6,76,0.00,,,0.00,,2014-10-01 23:55:00,
2014-10-01 20:00:00,83.3,85.4,29.89,SSW,202,0.0,0.0,76,0.00,,,0.00,,2014-10-02 00:00:00,
2014-10-01 20:05:00,83.3,85.4,29.89,SSW,202,2.6,3.8,76,0.00,,,0.00,,2014-10-02 00:05:00,
2014-10-01 20:10:00,83.2,85.4,29.90,SSW,202,2.3,2.3,76,0.00,,,0.00,,2014-10-02 00:10:00,
2014-10-01 20:15:00,83.2,85.3,29.90,SSW,202,0.8,2.7,76,0.00,,,0.00,,2014-10-02 00:15:00,
2014-10-01 20:20:00,83.3,85.3,29.90,SSW,202,3.4,4.5,76,0.00,,,0.00,,2014-10-02 00:20:00,
2014-10-01 20:25:00,83.2,85.2,29.90,SW,225,4.9,6.3,77,0.00,,,0.00,,2014-10-02 00:25:00,
2014-10-01 20:30:00,83.1,85.4,29.90,SW,225,5.1,7.4,77,0.00,,,0.00,,2014-10-02 00:30:00,
2014-10-01 20:36:00,83.1,85.2,29.90,SW,225,3.1,3.1,78,0.00,,,0.00,,2014-10-02 00:36:00,
2014-10-01 20:41:00,83.1,85.3,29.90,SSW,202,4.3,5.6,78,0.00,,,0.00,,2014-10-02 00:41:00,
2014-10-01 20:46:00,83.1,85.3,29.90,SSW,202,2.0,3.4,78,0.00,,,0.00,,2014-10-02 00:46:00,
2014-10-01 20:51:00,83.2,85.3,29.91,WNW,292,1.4,2.0,78,0.00,,,0.00,,2014-10-02 00:51:00,
2014-10-01 20:56:00,83.1,85.2,29.91,North,0,4.2,5.1,79,0.00,,,0.00,,2014-10-02 00:56:00,
2014-10-01 21:01:00,83.1,85.2,29.91,NNW,337,5.0,8.1,81,0.00,,,0.00,,2014-10-02 01:01:00,
2014-10-01 21:06:00,83.1,85.3,29.92,NNW,337,9.6,11.0,81,0.00,,,0.00,,2014-10-02 01:06:00,
2014-10-01 21:11:00,83.1,85.2,29.92,WNW,292,4.8,10.5,78,0.00,,,0.00,,2014-10-02 01:11:00,
2014-10-01 21:16:00,82.9,85.2,29.92,NNW,337,8.4,10.1,77,0.00,,,0.00,,2014-10-02 01:16:00,
2014-10-01 21:20:00,82.6,85.2,29.92,West,270,8.5,12.1,76,0.00,,,0.00,,2014-10-02 01:20:00,
2014-10-01 21:25:00,82.6,85.2,29.92,SW,225,3.6,8.7,77,0.00,,,0.00,,2014-10-02 01:25:00,
2014-10-01 21:30:00,82.7,85.2,29.93,West,270,0.4,0.0,77,0.00,,,0.00,,2014-10-02 01:30:00,
2014-10-01 21:34:00,82.9,85.0,29.93,West,270,0.0,0.0,77,0.00,,,0.00,,2014-10-02 01:34:00,
2014-10-01 21:39:00,82.7,85.1,29.93,ESE,112,2.1,2.9,77,0.00,,,0.00,,2014-10-02 01:39:00,
2014-10-01 21:44:00,82.5,85.0,29.94,East,90,4.0,4.3,77,0.00,,,0.00,,2014-10-02 01:44:00,
2014-10-01 21:49:00,82.3,85.0,29.94,SE,135,2.3,3.1,77,0.00,,,0.00,,2014-10-02 01:49:00,
2014-10-01 21:54:00,82.2,85.1,29.95,SE,135,3.5,4.0,78,0.00,,,0.00,,2014-10-02 01:54:00,
2014-10-01 21:59:00,82.0,85.0,29.95,South,180,0.2,2.5,78,0.00,,,0.00,,2014-10-02 01:59:00,
2014-10-01 22:04:00,82.1,84.9,29.95,South,180,0.0,0.0,79,0.00,,,0.00,,2014-10-02 02:04:00,
2014-10-01 22:09:00,82.2,85.0,29.95,SSW,202,0.0,0.0,79,0.00,,,0.00,,2014-10-02 02:09:00,
2014-10-01 22:14:00,82.2,85.1,29.95,SW,225,0.0,0.0,80,0.00,,,0.00,,2014-10-02 02:14:00,
2014-10-01 22:19:00,82.3,84.9,29.95,NNE,22,7.1,8.1,81,0.00,,,0.00,,2014-10-02 02:19:00,
2014-10-01 22:24:00,81.8,85.0,29.96,North,0,6.4,9.6,81,0.00,,,0.00,,2014-10-02 02:24:00,